Change the Weather History Date:

Friday, December 28, 2012

  Actual Average Record
Temperature  
Mean Temperature 30 °F -  
Max Temperature 33 °F 31 °F 56 °F (1984)
Min Temperature 28 °F 17 °F -8 °F (1961)
Degree Days  
Heating Degree Days 34    
Moisture  
Dew Point 27 °F    
Average Humidity 85    
Maximum Humidity 93    
Minimum Humidity 75    
Precipitation  
Precipitation 0.02 in - - ()
Sea Level Pressure  
Sea Level Pressure 30.04 in    
Wind  
Wind Speed 6 mph (South)    
Max Wind Speed 12 mph    
Max Gust Speed -    
Visibility 6 miles    
Events Snow    
Averages and records for this station are not official NWS values.
T = Trace of Precipitation, MM = Missing Value Source: NWS Daily Summary

Daily Weather History Graph

Daily Weather History Graph

Search for Another Location

Airport or City:

Trip Planner

Search our weather history database for the weather conditions in past years. The results will help you decide how hot, cold, wet, or windy it might be!

Date:

Astronomy

Dec. 28, 2012 Rise Set
Actual Time 7:21 AM CST 4:25 PM CST
Civil Twilight 6:49 AM CST 4:57 PM CST
Nautical Twilight 6:13 AM CST 5:32 PM CST
Astronomical Twilight 5:39 AM CST 6:07 PM CST
Moon 5:02 PM CST 7:14 AM CST
Length of Visible Light 10h 08m
Length of Day
9h 03m
Full, 100% of the Moon is Illuminated
Dec 28
Full
Jan 4
Last Quarter
Jan 11
New
Jan 18
First Quarter
Jan 26
Full

Hourly Weather History & Observations

Time (CST) Temp. Windchill Dew Point Humidity Pressure Visibility Wind Dir Wind Speed Gust Speed Precip Events Conditions
12:04 AM 33.8 °F 28.6 °F 26.6 °F 75% 30.12 in 10.0 mi ENE 5.8 mph - N/A   Overcast
12:19 AM 33.8 °F 27.7 °F 26.6 °F 75% 30.11 in 10.0 mi East 6.9 mph - N/A   Overcast
12:53 AM 33.1 °F 26.1 °F 26.1 °F 75% 30.13 in 10.0 mi East 8.1 mph - N/A   Overcast
1:09 AM 33.8 °F 25.8 °F 26.6 °F 75% 30.11 in 10.0 mi East 10.4 mph - N/A   Overcast
1:18 AM 33.8 °F 25.8 °F 26.6 °F 75% 30.11 in 10.0 mi East 10.4 mph - N/A   Overcast
1:53 AM 33.1 °F 24.9 °F 27.0 °F 78% 30.13 in 10.0 mi East 10.4 mph - N/A   Overcast
2:53 AM 33.1 °F 26.1 °F 27.0 °F 78% 30.13 in 10.0 mi East 8.1 mph - N/A   Overcast
3:28 AM 32.0 °F 23.0 °F 28.4 °F 87% 30.09 in 2.0 mi ESE 11.5 mph - 0.00 in Snow Light Snow
3:36 AM 32.0 °F 24.8 °F 30.2 °F 93% 30.09 in 1.2 mi ESE 8.1 mph - 0.00 in Snow Light Snow
3:46 AM 32.0 °F 23.0 °F 30.2 °F 93% 30.08 in 3.0 mi ENE 11.5 mph - 0.00 in Snow Light Snow
3:53 AM 33.1 °F 26.1 °F 30.0 °F 89% 30.11 in 8.0 mi East 8.1 mph - 0.00 in   Overcast
5:53 AM 30.0 °F 25.2 °F 27.0 °F 88% 30.10 in 8.0 mi WSW 4.6 mph - N/A   Overcast
6:53 AM 28.9 °F 25.2 °F 26.1 °F 89% 30.11 in 8.0 mi West 3.5 mph - N/A   Overcast
7:53 AM 28.9 °F 25.2 °F 26.1 °F 89% 30.11 in 8.0 mi West 3.5 mph - N/A   Overcast
8:53 AM 28.9 °F - 26.1 °F 89% 30.12 in 6.0 mi Calm Calm - N/A   Overcast
9:43 AM 30.2 °F - 26.6 °F 86% 30.09 in 2.0 mi Calm Calm - 0.00 in Snow Light Snow
9:53 AM 30.0 °F - 26.1 °F 85% 30.12 in 1.8 mi Calm Calm - 0.00 in Snow Light Snow
10:53 AM 30.0 °F - 27.0 °F 88% 30.09 in 1.5 mi Calm Calm - 0.01 in Snow Light Snow
11:09 AM 30.2 °F 26.7 °F 26.6 °F 86% 30.05 in 2.5 mi South 3.5 mph - 0.00 in Snow Light Snow
11:18 AM 30.2 °F - 26.6 °F 86% 30.04 in 4.0 mi Calm Calm - 0.00 in   Overcast
11:36 AM 30.2 °F 26.7 °F 26.6 °F 86% 30.03 in 2.5 mi South 3.5 mph - 0.00 in Snow Light Snow
11:44 AM 30.2 °F 26.7 °F 26.6 °F 86% 30.03 in 3.0 mi South 3.5 mph - 0.00 in Snow Light Snow
11:48 AM 30.2 °F 25.4 °F 28.4 °F 93% 30.03 in 2.5 mi South 4.6 mph - 0.00 in Snow Light Snow
11:53 AM 30.9 °F 26.2 °F 28.0 °F 89% 30.05 in 2.5 mi South 4.6 mph - 0.00 in Snow Light Snow
12:03 PM 30.2 °F 25.4 °F 28.4 °F 93% 30.02 in 1.8 mi South 4.6 mph - 0.00 in Snow Light Snow
12:23 PM 30.2 °F 26.7 °F 28.4 °F 93% 30.00 in 2.0 mi SSW 3.5 mph - 0.00 in Snow Light Snow
12:33 PM 30.2 °F 26.7 °F 28.4 °F 93% 29.99 in 4.0 mi South 3.5 mph - 0.00 in Snow Light Snow
12:41 PM 32.0 °F 25.6 °F 28.4 °F 87% 29.98 in 6.0 mi South 6.9 mph - 0.00 in   Overcast
12:53 PM 32.0 °F 26.4 °F 28.0 °F 85% 30.00 in 8.0 mi South 5.8 mph - 0.00 in   Overcast
1:53 PM 32.0 °F 24.8 °F 26.1 °F 79% 29.99 in 8.0 mi SSW 8.1 mph - 0.01 in   Overcast
2:53 PM 30.9 °F 26.2 °F 27.0 °F 85% 29.99 in 7.0 mi SSW 4.6 mph - N/A   Overcast
3:53 PM 30.9 °F 27.5 °F 27.0 °F 85% 29.98 in 6.0 mi SSW 3.5 mph - N/A   Overcast
4:53 PM 30.9 °F 27.5 °F 26.1 °F 82% 29.99 in 7.0 mi WSW 3.5 mph - N/A   Overcast
5:53 PM 30.9 °F 27.5 °F 26.1 °F 82% 29.99 in 7.0 mi WSW 3.5 mph - N/A   Overcast
6:53 PM 30.9 °F 27.5 °F 27.0 °F 85% 29.99 in 6.0 mi West 3.5 mph - N/A   Overcast
7:53 PM 30.9 °F 27.5 °F 26.1 °F 82% 29.97 in 6.0 mi WNW 3.5 mph - N/A   Haze
8:53 PM 30.0 °F 26.5 °F 26.1 °F 85% 29.95 in 6.0 mi NW 3.5 mph - N/A   Overcast
9:53 PM 30.0 °F 25.2 °F 27.0 °F 88% 29.94 in 6.0 mi North 4.6 mph - N/A   Overcast
10:53 PM 30.0 °F 26.5 °F 27.0 °F 88% 29.92 in 5.0 mi NW 3.5 mph - N/A   Overcast
11:26 PM 30.2 °F 25.4 °F 26.6 °F 86% 29.89 in 5.0 mi NW 4.6 mph - N/A   Overcast
11:53 PM 30.0 °F 25.2 °F 27.0 °F 88% 29.91 in 4.0 mi NW 4.6 mph - 0.00 in Snow Light Snow